Live-Position
3D-Globus wird geladen...
Über OneWeb SL0170
Group: 3 satellites
Beschreibung wird geladen...
Nächste Überflüge
Passes for default location (London). Set your location on the main map for personalized predictions.
Höhenverlauf
Loading altitude history...
No altitude history available
Zweizeiliger Elementsatz
1 48067U 21025AB 26125.57381897 -.00000071 00000-0 -22815-3 0 9990
2 48067 87.8949 328.7116 0002049 76.0606 284.0751 13.13470247247956
Epoch: 5. Mai 2026 •
Age: 13 hours
Aktueller Status
Höhe 1213.0 km
Geschwindigkeit 7.25 km/s
Subsatellitenpunkt 33.44°N,
64.93°E
Startdatum 25. März 2021
Alter 5.1 years
Typ internet
Startgruppe
Unknown Vehicle •
OneWeb Launch 5 •
36 satellites
OneWeb SL0115
48042
OneWeb SL0152 48043
OneWeb SL0153 48044
OneWeb SL0154 48045
OneWeb SL0116 48046
OneWeb SL0150 48047
OneWeb SL0107 48048
OneWeb SL0101 48049
OneWeb SL0113 48050
OneWeb SL0112 48051
OneWeb SL0156 48052
OneWeb SL0161 48053
OneWeb SL0158 48054
OneWeb SL0157 48055
OneWeb SL0162 48056
OneWeb SL0155 48057
OneWeb SL0149 48058
OneWeb SL0148 48059
OneWeb SL0160 48060
OneWeb SL0163 48061
...and 15 more
Technische Details
Klassifizierung Payload
Masse 148.00 kg
Trockenmasse 140.00 kg
Gesamtmasse 148.00 kg
Länge 1.30 m
Durchmesser 1.00 m
Spannweite 5.00 m
Form Trapezoid+2 pan
Hersteller ONEWUS
Bus-Typ ARROW
Phasenstatus In Orbit
Besitzer/Staat ONEWEBN/UK
Most Searched
Loading...